| time (UTC) | temp C | wind direction | speed KPH | gust KPH | rain 1hr cm | rain 24hr cm | rain mn cm | humidity % | barometer mb |
| 20260505214212 | -17 | 0.0 | 0.0 | 0.00 | 0.00 | 0.00 | 1006.1 | ||
| 20260505213709 | -17 | 0.0 | 0.0 | 0.00 | 0.00 | 0.00 | 1006.3 | ||
| 20260505213206 | -17 | 0.0 | 0.0 | 0.00 | 0.00 | 0.00 | 1006.3 | ||
| 20260505212702 | 28 | 214 | 12.9 | 16.1 | 0.00 | 0.00 | 0.00 | 73 | 1006.3 |
| 20260505212159 | 28 | 214 | 12.9 | 16.1 | 0.00 | 0.00 | 0.00 | 73 | 1006.4 |
| 20260505211656 | 28 | 214 | 12.9 | 16.1 | 0.00 | 0.00 | 0.00 | 73 | 1006.4 |
| 20260505211154 | 28 | 214 | 12.9 | 16.1 | 0.00 | 0.00 | 0.00 | 73 | 1006.4 |
| 20260505210650 | 28 | 214 | 12.9 | 16.1 | 0.00 | 0.00 | 0.00 | 73 | 1006.6 |
| 20260505210147 | 28 | 214 | 12.9 | 16.1 | 0.00 | 0.00 | 0.00 | 73 | 1006.6 |
| 20260505205644 | 28 | 214 | 12.9 | 16.1 | 0.00 | 0.00 | 0.00 | 73 | 1006.7 |
| 20260505205142 | 28 | 214 | 12.9 | 16.1 | 0.00 | 0.00 | 0.00 | 73 | 1006.7 |
| 20260505204639 | 28 | 214 | 12.9 | 16.1 | 0.00 | 0.00 | 0.00 | 73 | 1006.9 |
| 20260505204137 | 28 | 214 | 12.9 | 16.1 | 0.00 | 0.00 | 0.00 | 73 | 1006.7 |
| 20260505203633 | 28 | 214 | 12.9 | 16.1 | 0.00 | 0.00 | 0.00 | 73 | 1007.0 |
| 20260505203130 | 28 | 214 | 12.9 | 16.1 | 0.00 | 0.00 | 0.00 | 73 | 1007.1 |
| 20260505202626 | 28 | 205 | 16.1 | 20.9 | 0.00 | 0.00 | 0.00 | 73 | 1007.1 |
| 20260505202122 | 29 | 210 | 11.3 | 12.9 | 0.00 | 0.00 | 0.00 | 70 | 1007.4 |
| 20260505201619 | 29 | 210 | 11.3 | 12.9 | 0.00 | 0.00 | 0.00 | 70 | 1007.5 |
| 20260505201117 | 29 | 210 | 11.3 | 12.9 | 0.00 | 0.00 | 0.00 | 70 | 1007.3 |
| 20260505200615 | 29 | 210 | 11.3 | 12.9 | 0.00 | 0.00 | 0.00 | 70 | 1007.4 |
| 20260505200111 | 29 | 210 | 11.3 | 12.9 | 0.00 | 0.00 | 0.00 | 70 | 1007.5 |
| 20260505195608 | 28 | 154 | 9.7 | 11.3 | 0.00 | 0.00 | 0.00 | 73 | 1007.5 |
| 20260505195105 | 28 | 154 | 9.7 | 11.3 | 0.00 | 0.00 | 0.00 | 73 | 1007.5 |
| 20260505194602 | 28 | 154 | 9.7 | 11.3 | 0.00 | 0.00 | 0.00 | 73 | 1007.5 |
| 20260505194058 | 28 | 154 | 9.7 | 11.3 | 0.00 | 0.00 | 0.00 | 73 | 1007.6 |
| 20260505193555 | 28 | 154 | 9.7 | 11.3 | 0.00 | 0.00 | 0.00 | 73 | 1007.6 |
| 20260505193052 | 28 | 154 | 9.7 | 11.3 | 0.00 | 0.00 | 0.00 | 73 | 1007.8 |
| 20260505192551 | 28 | 154 | 9.7 | 11.3 | 0.00 | 0.00 | 0.00 | 73 | 1007.7 |
| 20260505192048 | 28 | 154 | 9.7 | 11.3 | 0.00 | 0.00 | 0.00 | 73 | 1007.8 |
| 20260505191546 | 27 | 186 | 9.7 | 12.9 | 0.00 | 0.00 | 0.00 | 74 | 1007.8 |
| 20260505191043 | 27 | 186 | 9.7 | 12.9 | 0.00 | 0.00 | 0.00 | 74 | 1007.7 |
| 20260505190537 | 27 | 195 | 11.3 | 12.9 | 0.00 | 0.00 | 0.00 | 76 | 1007.8 |
| 20260505190034 | 27 | 215 | 11.3 | 12.9 | 0.00 | 0.00 | 0.00 | 76 | 1007.9 |
| 20260505185531 | 27 | 208 | 12.9 | 16.1 | 0.00 | 0.00 | 0.00 | 75 | 1008.0 |
| 20260505185027 | 27 | 158 | 9.7 | 11.3 | 0.00 | 0.00 | 0.00 | 76 | 1008.0 |
| 20260505184524 | 27 | 158 | 9.7 | 11.3 | 0.00 | 0.00 | 0.00 | 76 | 1008.1 |
| 20260505184021 | 27 | 158 | 9.7 | 11.3 | 0.00 | 0.00 | 0.00 | 76 | 1007.9 |
| 20260505183518 | 27 | 158 | 9.7 | 11.3 | 0.00 | 0.00 | 0.00 | 76 | 1008.0 |
| 20260505183015 | 27 | 158 | 9.7 | 11.3 | 0.00 | 0.00 | 0.00 | 76 | 1008.0 |
| 20260505182512 | 27 | 158 | 9.7 | 11.3 | 0.00 | 0.00 | 0.00 | 76 | 1008.2 |
| 20260505182008 | 27 | 158 | 9.7 | 11.3 | 0.00 | 0.00 | 0.00 | 76 | 1008.2 |
| 20260505181505 | 27 | 158 | 9.7 | 11.3 | 0.00 | 0.00 | 0.00 | 76 | 1008.3 |
| 20260505181002 | 27 | 158 | 9.7 | 11.3 | 0.00 | 0.00 | 0.00 | 76 | 1008.2 |
| 20260505180457 | 27 | 199 | 6.4 | 6.4 | 0.00 | 0.00 | 0.00 | 76 | 1008.0 |
| 20260505175955 | 27 | 203 | 4.8 | 4.8 | 0.00 | 0.00 | 0.00 | 77 | 1008.5 |
| 20260505175451 | 26 | 200 | 6.4 | 6.4 | 0.00 | 0.00 | 0.00 | 78 | 1008.3 |
| 20260505174948 | 26 | 223 | 4.8 | 9.7 | 0.00 | 0.00 | 0.00 | 79 | 1008.4 |
| 20260505174445 | 26 | 190 | 8.0 | 11.3 | 0.00 | 0.00 | 0.00 | 78 | 1008.6 |
| 20260505173941 | -17 | 0.0 | 0.0 | 0.00 | 0.00 | 0.00 | 1008.4 | ||
| 20260505173437 | -17 | 0.0 | 0.0 | 0.00 | 0.00 | 0.00 | 1008.6 | ||
| 20260505172934 | -17 | 0.0 | 0.0 | 0.00 | 0.00 | 0.00 | 1008.6 | ||
| 20260505172433 | -17 | 0.0 | 0.0 | 0.00 | 0.00 | 0.00 | 1008.6 | ||
| 20260505171932 | 26 | 210 | 8.0 | 9.7 | 0.00 | 0.00 | 0.00 | 79 | 1008.6 |
| 20260505171429 | 26 | 210 | 8.0 | 9.7 | 0.00 | 0.00 | 0.00 | 79 | 1008.6 |
| 20260505170925 | 26 | 210 | 8.0 | 9.7 | 0.00 | 0.00 | 0.00 | 79 | 1008.7 |
| 20260505170422 | 26 | 210 | 8.0 | 9.7 | 0.00 | 0.00 | 0.00 | 79 | 1008.4 |
| 20260505165918 | 26 | 210 | 8.0 | 9.7 | 0.00 | 0.00 | 0.00 | 79 | 1008.6 |
| 20260505165414 | 26 | 210 | 8.0 | 9.7 | 0.00 | 0.00 | 0.00 | 79 | 1008.6 |
| 20260505164909 | 26 | 210 | 8.0 | 9.7 | 0.00 | 0.00 | 0.00 | 79 | 1008.8 |
| 20260505164407 | 26 | 210 | 8.0 | 9.7 | 0.00 | 0.00 | 0.00 | 79 | 1008.6 |
| 20260505163905 | 26 | 210 | 8.0 | 9.7 | 0.00 | 0.00 | 0.00 | 79 | 1008.6 |
| 20260505163403 | 26 | 210 | 8.0 | 9.7 | 0.00 | 0.00 | 0.00 | 79 | 1008.7 |
| 20260505162901 | 26 | 210 | 8.0 | 9.7 | 0.00 | 0.00 | 0.00 | 79 | 1008.7 |
| 20260505162357 | 26 | 210 | 8.0 | 9.7 | 0.00 | 0.00 | 0.00 | 79 | 1008.7 |
| 20260505161854 | 26 | 145 | 3.2 | 4.8 | 0.00 | 0.00 | 0.00 | 79 | 1008.5 |
| 20260505161351 | 26 | 145 | 3.2 | 4.8 | 0.00 | 0.00 | 0.00 | 79 | 1008.3 |
| 20260505160848 | 26 | 203 | 9.7 | 12.9 | 0.00 | 0.00 | 0.00 | 79 | 1008.4 |
| 20260505160346 | 26 | 203 | 9.7 | 12.9 | 0.00 | 0.00 | 0.00 | 79 | 1008.5 |
| 20260505153325 | 26 | 203 | 9.7 | 12.9 | 0.00 | 0.00 | 0.00 | 79 | 1008.2 |
| 20260505152822 | 26 | 203 | 9.7 | 12.9 | 0.00 | 0.00 | 0.00 | 79 | 1008.3 |
| 20260505152320 | 25 | 150 | 8.0 | 12.9 | 0.00 | 0.00 | 0.00 | 80 | 1008.3 |
| 20260505151819 | 25 | 194 | 14.5 | 17.7 | 0.00 | 0.00 | 0.00 | 80 | 1008.3 |
| 20260505151316 | 25 | 194 | 14.5 | 17.7 | 0.00 | 0.00 | 0.00 | 80 | 1008.2 |
| 20260505150813 | 25 | 216 | 9.7 | 12.9 | 0.00 | 0.00 | 0.00 | 80 | 1008.3 |
| 20260505150310 | 25 | 221 | 11.3 | 16.1 | 0.00 | 0.00 | 0.00 | 81 | 1008.3 |
| 20260505140234 | 25 | 164 | 11.3 | 16.1 | 0.00 | 0.00 | 0.00 | 84 | 1008.3 |
| 20260505130158 | 23 | 140 | 9.7 | 14.5 | 0.00 | 0.00 | 0.00 | 87 | 1008.0 |
| 20260505124648 | 23 | 140 | 9.7 | 14.5 | 0.00 | 0.00 | 0.00 | 87 | 1008.2 |
| 20260505124145 | 23 | 140 | 9.7 | 14.5 | 0.00 | 0.00 | 0.00 | 87 | 1007.9 |
| 20260505123641 | 23 | 140 | 9.7 | 14.5 | 0.00 | 0.00 | 0.00 | 87 | 1008.1 |
| 20260505123138 | 23 | 140 | 9.7 | 14.5 | 0.00 | 0.00 | 0.00 | 87 | 1008.0 |
| 20260505122634 | 23 | 186 | 4.8 | 6.4 | 0.00 | 0.00 | 0.00 | 87 | 1007.8 |
| 20260505122132 | 23 | 157 | 9.7 | 11.3 | 0.00 | 0.00 | 0.00 | 87 | 1007.6 |
| 20260505121628 | 23 | 195 | 11.3 | 12.9 | 0.00 | 0.00 | 0.00 | 87 | 1007.4 |
| 20260505121125 | 23 | 195 | 11.3 | 12.9 | 0.00 | 0.00 | 0.00 | 87 | 1007.3 |
| 20260505120621 | 23 | 158 | 8.0 | 12.9 | 0.00 | 0.00 | 0.00 | 87 | 1007.3 |
| 20260505120117 | 23 | 158 | 8.0 | 12.9 | 0.00 | 0.00 | 0.00 | 87 | 1007.1 |
| 20260505115611 | 23 | 187 | 9.7 | 11.3 | 0.00 | 0.00 | 0.00 | 87 | 1007.5 |
| 20260505115109 | 23 | 138 | 6.4 | 6.4 | 0.00 | 0.00 | 0.00 | 87 | 1007.7 |
| 20260505114606 | 23 | 183 | 3.2 | 4.8 | 0.00 | 0.00 | 0.00 | 87 | 1007.7 |
| 20260505114102 | 22 | 210 | 4.8 | 6.4 | 0.00 | 0.00 | 0.00 | 87 | 1007.9 |
| 20260505113559 | 22 | 210 | 4.8 | 6.4 | 0.00 | 0.00 | 0.00 | 87 | 1007.9 |
| 20260505113055 | 22 | 210 | 4.8 | 6.4 | 0.00 | 0.00 | 0.00 | 87 | 1007.6 |
| 20260505112551 | 22 | 210 | 4.8 | 6.4 | 0.00 | 0.00 | 0.00 | 87 | 1007.4 |
| 20260505112050 | 22 | 210 | 4.8 | 6.4 | 0.00 | 0.00 | 0.00 | 87 | 1007.6 |
| 20260505111544 | 22 | 152 | 6.4 | 9.7 | 0.00 | 0.00 | 0.00 | 87 | 1007.4 |
| 20260505111040 | 22 | 172 | 9.7 | 12.9 | 0.00 | 0.00 | 0.00 | 87 | 1007.4 |
| 20260505110537 | 22 | 185 | 8.0 | 14.5 | 0.00 | 0.00 | 0.00 | 87 | 1007.4 |
| 20260505102009 | 22 | 153 | 6.4 | 9.7 | 0.00 | 0.00 | 0.00 | 87 | 1007.5 |
| 20260505101508 | 22 | 174 | 6.4 | 11.3 | 0.00 | 0.00 | 0.00 | 87 | 1007.5 |
| 20260505101004 | 22 | 192 | 3.2 | 4.8 | 0.00 | 0.00 | 0.00 | 87 | 1007.6 |
| 20260505100501 | 22 | 205 | 6.4 | 14.5 | 0.00 | 0.00 | 0.00 | 87 | 1007.8 |
| 20260505095957 | 22 | 176 | 6.4 | 11.3 | 0.00 | 0.00 | 0.00 | 87 | 1007.7 |
| 20260505095453 | 22 | 171 | 4.8 | 6.4 | 0.00 | 0.00 | 0.00 | 87 | 1007.7 |
| 20260505094950 | 22 | 165 | 6.4 | 9.7 | 0.00 | 0.00 | 0.00 | 87 | 1007.4 |
| 20260505094447 | 22 | 178 | 6.4 | 11.3 | 0.00 | 0.00 | 0.00 | 87 | 1007.4 |
| 20260505093943 | 22 | 158 | 11.3 | 14.5 | 0.00 | 0.00 | 0.00 | 87 | 1007.6 |
| 20260505093440 | 22 | 147 | 3.2 | 6.4 | 0.00 | 0.00 | 0.00 | 87 | 1007.6 |
| 20260505092937 | 22 | 176 | 8.0 | 11.3 | 0.00 | 0.00 | 0.00 | 87 | 1007.6 |
| 20260505092434 | 22 | 186 | 9.7 | 11.3 | 0.00 | 0.00 | 0.00 | 87 | 1007.7 |
| 20260505091932 | 22 | 187 | 6.4 | 11.3 | 0.00 | 0.00 | 0.00 | 87 | 1007.9 |
| 20260505091429 | 22 | 151 | 4.8 | 11.3 | 0.00 | 0.00 | 0.00 | 86 | 1007.9 |
| 20260505090927 | 22 | 174 | 6.4 | 9.7 | 0.00 | 0.00 | 0.00 | 86 | 1008.0 |
| 20260505090425 | 22 | 156 | 6.4 | 12.9 | 0.00 | 0.00 | 0.00 | 86 | 1007.6 |
| 20260505085922 | 22 | 175 | 4.8 | 9.7 | 0.00 | 0.00 | 0.00 | 86 | 1007.8 |
| 20260505085420 | 22 | 182 | 6.4 | 11.3 | 0.00 | 0.00 | 0.00 | 86 | 1008.0 |
| 20260505084918 | 22 | 149 | 6.4 | 9.7 | 0.00 | 0.00 | 0.00 | 86 | 1008.0 |
| 20260505084416 | 22 | 142 | 4.8 | 6.4 | 0.00 | 0.00 | 0.00 | 86 | 1008.0 |
| 20260505083914 | 22 | 168 | 6.4 | 9.7 | 0.00 | 0.00 | 0.00 | 86 | 1007.9 |
| 20260505083411 | 22 | 180 | 1.6 | 6.4 | 0.00 | 0.00 | 0.00 | 86 | 1008.1 |
| 20260505082907 | 22 | 177 | 8.0 | 11.3 | 0.00 | 0.00 | 0.00 | 86 | 1008.0 |
| 20260505082403 | 22 | 185 | 4.8 | 12.9 | 0.00 | 0.00 | 0.00 | 86 | 1008.1 |
| 20260505081900 | 22 | 161 | 6.4 | 9.7 | 0.00 | 0.00 | 0.00 | 86 | 1008.2 |
| 20260505081356 | 22 | 169 | 3.2 | 6.4 | 0.00 | 0.00 | 0.00 | 86 | 1008.3 |
| 20260505080853 | 22 | 183 | 4.8 | 11.3 | 0.00 | 0.00 | 0.00 | 86 | 1008.1 |
| 20260505080349 | 22 | 172 | 8.0 | 11.3 | 0.00 | 0.00 | 0.00 | 86 | 1008.2 |
| 20260505075845 | 22 | 192 | 6.4 | 12.9 | 0.00 | 0.00 | 0.00 | 86 | 1008.2 |
| 20260505075342 | 22 | 155 | 6.4 | 11.3 | 0.00 | 0.00 | 0.00 | 85 | 1008.4 |
| 20260505074839 | 22 | 174 | 4.8 | 6.4 | 0.00 | 0.00 | 0.00 | 85 | 1008.3 |
| 20260505074336 | 22 | 194 | 8.0 | 9.7 | 0.00 | 0.00 | 0.00 | 85 | 1008.3 |
| 20260505073834 | 22 | 142 | 8.0 | 9.7 | 0.00 | 0.00 | 0.00 | 85 | 1008.2 |
| 20260505073331 | 22 | 199 | 4.8 | 11.3 | 0.00 | 0.00 | 0.00 | 85 | 1008.5 |
| 20260505072828 | 21 | 197 | 6.4 | 12.9 | 0.00 | 0.00 | 0.00 | 85 | 1008.4 |
| 20260505072324 | 21 | 208 | 6.4 | 12.9 | 0.00 | 0.00 | 0.00 | 85 | 1008.3 |
| 20260505071820 | 21 | 184 | 11.3 | 14.5 | 0.00 | 0.00 | 0.00 | 85 | 1008.4 |
| 20260505071317 | 21 | 177 | 6.4 | 12.9 | 0.00 | 0.00 | 0.00 | 85 | 1008.7 |
| 20260505070815 | 21 | 165 | 8.0 | 12.9 | 0.00 | 0.00 | 0.00 | 85 | 1008.6 |
| 20260505070311 | 21 | 192 | 9.7 | 12.9 | 0.00 | 0.00 | 0.00 | 84 | 1008.6 |
| 20260505065806 | 21 | 154 | 8.0 | 12.9 | 0.00 | 0.00 | 0.00 | 84 | 1008.8 |
| 20260505065304 | 21 | 157 | 3.2 | 4.8 | 0.00 | 0.00 | 0.00 | 84 | 1008.5 |
| 20260505064801 | 21 | 139 | 8.0 | 11.3 | 0.00 | 0.00 | 0.00 | 84 | 1008.9 |
| 20260505064258 | 21 | 167 | 3.2 | 6.4 | 0.00 | 0.00 | 0.00 | 84 | 1008.8 |
| 20260505063755 | 21 | 122 | 4.8 | 9.7 | 0.00 | 0.00 | 0.00 | 83 | 1008.9 |
| 20260505063252 | 21 | 169 | 6.4 | 11.3 | 0.00 | 0.00 | 0.00 | 83 | 1009.1 |
| 20260505062748 | 21 | 190 | 6.4 | 11.3 | 0.00 | 0.00 | 0.00 | 83 | 1009.3 |
| 20260505062246 | 21 | 162 | 6.4 | 9.7 | 0.00 | 0.00 | 0.00 | 83 | 1009.2 |
| 20260505061743 | 21 | 143 | 8.0 | 11.3 | 0.00 | 0.00 | 0.00 | 83 | 1009.4 |
| 20260505061241 | 21 | 180 | 3.2 | 6.4 | 0.00 | 0.00 | 0.00 | 82 | 1009.5 |
| 20260505060738 | 21 | 153 | 4.8 | 9.7 | 0.00 | 0.00 | 0.00 | 82 | 1009.3 |
| 20260505060235 | 21 | 161 | 3.2 | 9.7 | 0.00 | 0.00 | 0.00 | 82 | 1009.3 |
| 20260505055730 | 21 | 195 | 8.0 | 12.9 | 0.00 | 0.00 | 0.00 | 82 | 1009.3 |
| 20260505055227 | 21 | 171 | 6.4 | 11.3 | 0.00 | 0.00 | 0.00 | 82 | 1009.5 |
| 20260505054724 | 21 | 176 | 6.4 | 9.7 | 0.00 | 0.00 | 0.00 | 82 | 1009.2 |
| 20260505054222 | 21 | 198 | 8.0 | 14.5 | 0.00 | 0.00 | 0.00 | 81 | 1009.3 |
| 20260505053720 | 21 | 140 | 9.7 | 12.9 | 0.00 | 0.00 | 0.00 | 81 | 1009.5 |
| 20260505053216 | 21 | 175 | 6.4 | 9.7 | 0.00 | 0.00 | 0.00 | 81 | 1009.7 |
| 20260505052713 | 21 | 154 | 4.8 | 9.7 | 0.00 | 0.00 | 0.00 | 81 | 1009.6 |
| 20260505052210 | 22 | 181 | 6.4 | 11.3 | 0.00 | 0.00 | 0.00 | 81 | 1009.6 |
| 20260505051707 | 22 | 149 | 6.4 | 11.3 | 0.00 | 0.00 | 0.00 | 80 | 1009.7 |
| 20260505051205 | 22 | 171 | 6.4 | 9.7 | 0.00 | 0.00 | 0.00 | 80 | 1009.8 |
| 20260505050703 | 22 | 149 | 6.4 | 14.5 | 0.00 | 0.00 | 0.00 | 80 | 1009.7 |
| 20260505050201 | 22 | 201 | 6.4 | 9.7 | 0.00 | 0.00 | 0.00 | 80 | 1009.9 |
| 20260505041631 | 22 | 185 | 9.7 | 16.1 | 0.00 | 0.00 | 0.00 | 77 | 1009.6 |
| 20260505041128 | 22 | 146 | 9.7 | 12.9 | 0.00 | 0.00 | 0.00 | 77 | 1009.7 |
| 20260505040625 | 22 | 159 | 9.7 | 12.9 | 0.00 | 0.00 | 0.00 | 77 | 1010.1 |
| 20260505040122 | 22 | 171 | 9.7 | 12.9 | 0.00 | 0.00 | 0.00 | 76 | 1010.0 |
| 20260505035618 | 22 | 170 | 8.0 | 14.5 | 0.00 | 0.00 | 0.00 | 76 | 1009.8 |
| 20260505035115 | 22 | 189 | 6.4 | 12.9 | 0.00 | 0.00 | 0.00 | 76 | 1010.1 |
| 20260505034611 | 22 | 165 | 8.0 | 12.9 | 0.00 | 0.00 | 0.00 | 75 | 1010.2 |
| 20260505034108 | 22 | 142 | 9.7 | 16.1 | 0.00 | 0.00 | 0.00 | 75 | 1010.2 |
| 20260505033605 | 22 | 139 | 12.9 | 16.1 | 0.00 | 0.00 | 0.00 | 75 | 1010.2 |
| 20260505033103 | 23 | 179 | 6.4 | 17.7 | 0.00 | 0.00 | 0.00 | 74 | 1010.3 |
| 20260505032601 | 23 | 119 | 9.7 | 16.1 | 0.00 | 0.00 | 0.00 | 74 | 1010.2 |
| 20260505032057 | 23 | 207 | 9.7 | 20.9 | 0.00 | 0.00 | 0.00 | 74 | 1010.2 |
| 20260505031555 | 23 | 173 | 16.1 | 20.9 | 0.00 | 0.00 | 0.00 | 74 | 1010.2 |
| 20260505031050 | 23 | 175 | 14.5 | 20.9 | 0.00 | 0.00 | 0.00 | 73 | 1010.1 |
| 20260505030548 | 23 | 161 | 11.3 | 24.1 | 0.00 | 0.00 | 0.00 | 73 | 1010.0 |
| 20260505030044 | 23 | 147 | 11.3 | 24.1 | 0.00 | 0.00 | 0.00 | 73 | 1010.0 |
| 20260505025539 | 23 | 178 | 11.3 | 14.5 | 0.00 | 0.00 | 0.00 | 73 | 1010.2 |
| 20260505025039 | 23 | 185 | 9.7 | 16.1 | 0.00 | 0.00 | 0.00 | 73 | 1010.3 |
| 20260505024535 | 23 | 143 | 8.0 | 14.5 | 0.00 | 0.00 | 0.00 | 73 | 1010.2 |
| 20260505024032 | 23 | 160 | 9.7 | 16.1 | 0.00 | 0.00 | 0.00 | 73 | 1010.1 |
| 20260505023529 | 23 | 140 | 9.7 | 14.5 | 0.00 | 0.00 | 0.00 | 73 | 1010.1 |
| 20260505023027 | 23 | 169 | 9.7 | 17.7 | 0.00 | 0.00 | 0.00 | 73 | 1010.1 |
| 20260505022524 | 23 | 196 | 6.4 | 14.5 | 0.00 | 0.00 | 0.00 | 73 | 1009.9 |
| 20260505022022 | 23 | 166 | 9.7 | 14.5 | 0.00 | 0.00 | 0.00 | 73 | 1009.9 |
| 20260505021518 | 23 | 156 | 12.9 | 20.9 | 0.00 | 0.00 | 0.00 | 73 | 1010.0 |
| 20260505021014 | 23 | 157 | 9.7 | 16.1 | 0.00 | 0.00 | 0.00 | 73 | 1010.0 |
| 20260505020509 | 23 | 155 | 11.3 | 17.7 | 0.00 | 0.00 | 0.00 | 72 | 1009.9 |
| 20260505020006 | 23 | 160 | 9.7 | 22.5 | 0.00 | 0.00 | 0.00 | 72 | 1009.8 |
| 20260505015503 | 23 | 149 | 11.3 | 17.7 | 0.00 | 0.00 | 0.00 | 72 | 1009.8 |
| 20260505015000 | 23 | 133 | 14.5 | 17.7 | 0.00 | 0.00 | 0.00 | 72 | 1009.9 |
| 20260505014457 | 23 | 186 | 9.7 | 17.7 | 0.00 | 0.00 | 0.00 | 71 | 1009.7 |
| 20260505013954 | 23 | 148 | 12.9 | 20.9 | 0.00 | 0.00 | 0.00 | 71 | 1009.7 |
| 20260505013451 | 23 | 137 | 12.9 | 16.1 | 0.00 | 0.00 | 0.00 | 71 | 1009.7 |
| 20260505012948 | 23 | 201 | 9.7 | 17.7 | 0.00 | 0.00 | 0.00 | 71 | 1009.6 |
| 20260505012447 | 23 | 140 | 12.9 | 17.7 | 0.00 | 0.00 | 0.00 | 70 | 1009.4 |
| 20260505011943 | 24 | 151 | 8.0 | 12.9 | 0.00 | 0.00 | 0.00 | 69 | 1009.5 |
| 20260505011439 | 24 | 182 | 11.3 | 14.5 | 0.00 | 0.00 | 0.00 | 69 | 1009.8 |
| 20260505010936 | 24 | 139 | 8.0 | 20.9 | 0.00 | 0.00 | 0.00 | 69 | 1009.5 |
| 20260505010432 | 24 | 178 | 9.7 | 17.7 | 0.00 | 0.00 | 0.00 | 69 | 1009.4 |
| 20260505005928 | 24 | 168 | 14.5 | 24.1 | 0.00 | 0.00 | 0.00 | 68 | 1009.5 |
| 20260505005425 | 24 | 141 | 8.0 | 16.1 | 0.00 | 0.00 | 0.00 | 68 | 1009.5 |
| 20260505004923 | 25 | 203 | 16.1 | 22.5 | 0.00 | 0.00 | 0.00 | 67 | 1009.6 |
| 20260505004419 | 25 | 168 | 16.1 | 20.9 | 0.00 | 0.00 | 0.00 | 67 | 1009.3 |
| 20260505003916 | 25 | 262 | 12.9 | 16.1 | 0.00 | 0.00 | 0.00 | 66 | 1009.2 |
| 20260505003413 | 25 | 143 | 9.7 | 22.5 | 0.00 | 0.00 | 0.00 | 66 | 1009.2 |
| 20260505002909 | 25 | 164 | 6.4 | 14.5 | 0.00 | 0.00 | 0.00 | 66 | 1009.2 |
| 20260505002406 | 25 | 178 | 16.1 | 20.9 | 0.00 | 0.00 | 0.00 | 65 | 1009.4 |
| 20260505001904 | 25 | 199 | 9.7 | 22.5 | 0.00 | 0.00 | 0.00 | 65 | 1009.3 |
| 20260505001401 | 25 | 162 | 16.1 | 17.7 | 0.00 | 0.00 | 0.00 | 64 | 1009.2 |
| 20260505000858 | 25 | 182 | 11.3 | 22.5 | 0.00 | 0.00 | 0.00 | 64 | 1009.3 |
| 20260505000358 | 25 | 166 | 16.1 | 17.7 | 0.00 | 0.00 | 0.00 | 63 | 1009.5 |
| 20260504235852 | 26 | 178 | 11.3 | 17.7 | 0.00 | 0.00 | 0.00 | 63 | 1009.3 |
| 20260504235349 | 26 | 170 | 9.7 | 14.5 | 0.00 | 0.00 | 0.00 | 63 | 1009.5 |
| 20260504234846 | 25 | 165 | 12.9 | 17.7 | 0.00 | 0.00 | 0.00 | 63 | 1009.3 |
| 20260504234344 | 25 | 188 | 14.5 | 20.9 | 0.00 | 0.00 | 0.00 | 63 | 1009.5 |
| 20260504233840 | 25 | 182 | 16.1 | 20.9 | 0.00 | 0.00 | 0.00 | 63 | 1009.7 |
| 20260504233336 | 25 | 149 | 14.5 | 20.9 | 0.00 | 0.00 | 0.00 | 63 | 1009.7 |
| 20260504232833 | 25 | 188 | 9.7 | 17.7 | 0.00 | 0.00 | 0.00 | 63 | 1009.7 |
| 20260504232330 | 26 | 136 | 16.1 | 17.7 | 0.00 | 0.00 | 0.00 | 63 | 1009.8 |
| 20260504231826 | 26 | 177 | 11.3 | 20.9 | 0.00 | 0.00 | 0.00 | 63 | 1009.9 |
| 20260504231323 | 26 | 140 | 11.3 | 22.5 | 0.00 | 0.00 | 0.00 | 62 | 1009.8 |
| 20260504230819 | 26 | 160 | 12.9 | 16.1 | 0.00 | 0.00 | 0.00 | 62 | 1009.9 |
| 20260504230317 | 26 | 189 | 14.5 | 20.9 | 0.00 | 0.00 | 0.00 | 62 | 1009.9 |
| 20260504225816 | 26 | 172 | 11.3 | 20.9 | 0.00 | 0.00 | 0.00 | 62 | 1010.0 |
| 20260504225312 | 26 | 185 | 12.9 | 22.5 | 0.00 | 0.00 | 0.00 | 61 | 1010.0 |
| 20260504224809 | 26 | 180 | 14.5 | 22.5 | 0.00 | 0.00 | 0.00 | 60 | 1010.0 |
| 20260504224306 | 26 | 207 | 9.7 | 16.1 | 0.00 | 0.00 | 0.00 | 60 | 1010.0 |
| 20260504223802 | 26 | 153 | 14.5 | 17.7 | 0.00 | 0.00 | 0.00 | 59 | 1010.2 |
| 20260504223258 | 26 | 184 | 8.0 | 11.3 | 0.00 | 0.00 | 0.00 | 59 | 1009.9 |
| 20260504222755 | 26 | 196 | 12.9 | 22.5 | 0.00 | 0.00 | 0.00 | 59 | 1010.2 |
| 20260504222252 | 26 | 187 | 17.7 | 24.1 | 0.00 | 0.00 | 0.00 | 59 | 1010.3 |
| 20260504221750 | 26 | 177 | 14.5 | 20.9 | 0.00 | 0.00 | 0.00 | 59 | 1010.3 |
| 20260504221247 | 26 | 171 | 4.8 | 14.5 | 0.00 | 0.00 | 0.00 | 59 | 1010.5 |
| 20260504220743 | 26 | 147 | 12.9 | 17.7 | 0.00 | 0.00 | 0.00 | 58 | 1010.4 |
| 20260504220240 | 26 | 184 | 11.3 | 20.9 | 0.00 | 0.00 | 0.00 | 58 | 1010.5 |
| 20260504215738 | 27 | 202 | 11.3 | 14.5 | 0.00 | 0.00 | 0.00 | 57 | 1010.5 |
| 20260504215234 | 26 | 183 | 6.4 | 17.7 | 0.00 | 0.00 | 0.00 | 58 | 1010.5 |
| 20260504214730 | 26 | 191 | 12.9 | 24.1 | 0.00 | 0.00 | 0.00 | 57 | 1010.7 |